Tracking 28794 objects as of 19-Apr-2024
HD Live streaming from Space Station
objects crossing your sky now

SL-16 DEB

Track SL-16 DEB now!
10-day predictions


NORAD ID: 22609
Int'l Code: 1993-016T
Perigee: 840.8 km
Apogee: 1,043.7 km
Inclination: 71.0 °
Period: 103.7 minutes
Semi major axis: 7313 km
RCS: 0.0177 m2 (small)
Launch date: March 26, 1993
Source: Commonwealth of Independent States (former USSR) (CIS)
Launch site: TYURATAM MISSILE AND SPACE COMPLEX (TTMTR)

Note: This is SATELLITE DEBRIS
Your satellite tracking list
Your tracking list is empty




NASA's NSSDC Master Catalog

Two Line Element Set (TLE):
1 22609U 93016T   24109.83990639  .00001284  00000-0  10310-2 0  9993
2 22609  70.9922 262.5700 0138764 239.5084 238.3350 13.88155691570498
Source of the keplerian elements: AFSPC